[[{"header":{"parameterUnit":"m.s-1","parameterCategory":1,"la1":30.2991,"la2":30.254,"lo1":-89.0895,"lo2":-89.0444,"dy":0.0017,"dx":0.0017,"nx":28,"ny":28,"refTime":"2025-09-04T03:00:00:Z","depth":0,"parameterNumber":2,"parameterNumberName":"U-component_of_WINDS"},"data":[0,0,0,0,0,0,0,0,0,0,0,0,0,0,0,0,0,0,0,0,0,0,0,0,0,0,0,0,0,0,0,0,0,0,0,0,0,0,0,0,0,0,0,0,0,0,0,0,0,0,0,0,0,0,0,0,0,0,-0.2859,-0.2858,0,-0.2795,-0.2794,-0.2793,-0.2759,-0.2759,-0.2759,-0.2759,-0.2692,-0.269,-0.2688,0,0,0,0,0,0,0,0,0,0,0,0,0,-0.2951,-0.2949,-0.2859,-0.2858,-0.2857,-0.2795,-0.2794,-0.2793,-0.2759,-0.2759,-0.2759,-0.2759,-0.2692,-0.269,-0.2688,0,0,0,0,0,0,0,0,0,0,0,0,0,-0.2901,-0.2949,-0.2859,-0.2833,-0.283,-0.2795,-0.2794,-0.2793,-0.2759,-0.2759,-0.2759,-0.2759,-0.2693,-0.2691,-0.2688,-0.2674,0,0,-0.268,-0.2679,0,0,0,0,0,0,0,0,-0.2904,-0.2898,-0.2837,-0.2834,-0.2831,-0.2785,-0.2802,-0.2753,-0.2759,-0.2786,-0.2759,-0.2759,-0.2723,-0.2718,-0.2706,-0.2671,-0.2668,-0.268,-0.2678,-0.2677,-0.2677,0,0,0,0,0,0,0,-0.2907,-0.29,-0.2833,-0.2836,-0.2833,-0.2824,-0.2817,-0.2792,-0.2756,-0.2783,-0.2781,-0.2774,-0.2721,-0.2708,-0.2704,-0.2667,-0.268,-0.2678,-0.2676,-0.2675,-0.2619,-0.2619,0,0,0,0,0,0,-0.2915,-0.2903,-0.2835,-0.2831,-0.2868,-0.2822,-0.2814,-0.28,-0.2756,-0.2749,-0.2774,-0.2773,-0.2713,-0.2707,-0.2702,-0.2683,-0.2677,-0.2675,-0.2673,-0.2619,-0.2619,-0.2619,0,0,0,0,0,0,-0.2917,-0.2909,-0.2838,-0.2867,-0.2857,-0.2821,-0.2805,-0.2798,-0.2786,-0.2749,-0.2742,-0.2768,-0.2713,-0.2705,-0.2682,-0.268,-0.2674,-0.2671,-0.2619,-0.2619,-0.2619,-0.2646,0,0,0,0,0,0,-0.292,-0.291,-0.2905,-0.2867,-0.2856,-0.2819,-0.2805,-0.2797,-0.2782,-0.2779,-0.2741,-0.2735,-0.2712,-0.2686,-0.2679,-0.2677,-0.2669,-0.2619,-0.2619,-0.2619,-0.2645,-0.2647,-0.2648,0,0,0,0,0,-0.2923,-0.2914,-0.2905,-0.2897,-0.2848,-0.2819,-0.2813,-0.2787,-0.2782,-0.2776,-0.2752,-0.2736,-0.2682,-0.2684,-0.2676,-0.2673,-0.2619,-0.2619,-0.2619,-0.2644,-0.2646,-0.2648,0,0,0,0,0,0,-0.2952,-0.2909,-0.2898,-0.2876,-0.2852,-0.2813,-0.2805,-0.279,-0.2766,-0.2765,-0.2734,-0.2726,-0.2705,-0.2686,-0.2689,-0.2657,-0.2648,-0.2647,-0.267,-0.2672,-0.2674,-0.2679,-0.2667,0,0,0,0,0,-0.2956,-0.2937,-0.29,-0.2884,-0.2873,-0.2841,-0.2828,-0.281,-0.2784,-0.2773,-0.2747,-0.2722,-0.2699,-0.2685,-0.2661,-0.2642,-0.2634,-0.2636,-0.2638,-0.264,-0.2639,-0.2628,-0.2629,-0.2619,-0.2619,-0.2619,0,0,-0.2963,-0.2937,-0.2927,-0.2889,-0.2868,-0.2849,-0.2832,-0.2812,-0.2798,-0.277,-0.2746,-0.2727,-0.2696,-0.2675,-0.2664,-0.2659,-0.264,-0.264,-0.2641,-0.2639,-0.2628,-0.2629,-0.263,-0.2619,-0.2619,-0.2619,0,0,-0.2967,-0.2946,-0.2931,-0.291,-0.2879,-0.2859,-0.2855,-0.282,-0.2806,-0.2782,-0.2761,-0.2743,-0.2704,-0.2684,-0.2668,-0.2667,-0.2651,-0.266,-0.2669,-0.2659,-0.266,-0.266,-0.266,-0.266,-0.2659,-0.2659,-0.2659,0,-0.298,-0.2951,-0.2925,-0.2906,-0.289,-0.2865,-0.285,-0.2831,-0.2794,-0.2784,-0.2779,-0.2731,-0.2708,-0.2682,-0.2682,-0.267,-0.2666,-0.2664,-0.2662,-0.2662,-0.2662,-0.2662,-0.2662,-0.2661,-0.266,-0.266,-0.266,0,-0.2968,-0.2948,-0.294,-0.2906,-0.2889,-0.2872,-0.2844,-0.283,-0.2815,-0.2795,-0.2772,-0.2744,-0.2716,-0.2708,-0.2692,-0.2681,-0.2678,-0.2668,-0.2658,-0.2665,-0.2664,-0.2663,-0.2662,-0.2662,-0.2662,-0.2661,0,0,-0.2987,-0.294,-0.2937,-0.2922,-0.2887,-0.2871,-0.2853,-0.2826,-0.2815,-0.2791,-0.2776,-0.2745,-0.2735,-0.2718,-0.27,-0.2691,-0.2692,-0.2682,-0.268,-0.2685,-0.2678,-0.2686,-0.2686,-0.2682,-0.2682,-0.2682,-0.2681,0,-0.2986,-0.2954,-0.2931,-0.2907,-0.2888,-0.2865,-0.285,-0.2827,-0.2808,-0.279,-0.2769,-0.2748,-0.2737,-0.2726,-0.2717,-0.2694,-0.269,-0.2694,-0.2668,-0.2667,-0.2676,-0.2686,-0.2694,-0.2694,-0.268,-0.268,-0.268,0,-0.298,-0.2958,-0.2933,-0.2901,-0.2892,-0.2879,-0.2853,-0.2835,-0.2809,-0.2796,-0.2778,-0.276,-0.2741,-0.2733,-0.2707,-0.271,-0.2698,-0.2686,-0.2685,-0.2681,-0.2674,-0.2682,-0.2693,-0.2694,-0.2679,-0.2679,-0.2679,0,-0.2997,-0.296,-0.2941,-0.2928,-0.289,-0.2882,-0.2865,-0.2839,-0.2825,-0.2802,-0.2793,-0.2768,-0.2754,-0.2736,-0.2712,-0.2709,-0.2688,-0.2679,-0.2677,-0.2678,-0.2673,-0.2674,-0.2683,-0.2666,-0.2666,-0.2666,-0.2666,0,-0.2998,-0.2983,-0.2948,-0.2936,-0.2919,-0.2893,-0.2878,-0.286,-0.2837,-0.2821,-0.2799,-0.2785,-0.2754,-0.2736,-0.2717,-0.2699,-0.2693,-0.2682,-0.2677,-0.2684,-0.2685,-0.2675,-0.2675,-0.2666,-0.2666,-0.2666,-0.2666,0,-0.3013,-0.2989,-0.2966,-0.2932,-0.2924,-0.2913,-0.2884,-0.2872,-0.2853,-0.2834,-0.2828,-0.2797,-0.2776,-0.275,-0.2719,-0.2707,-0.269,-0.2683,-0.2699,-0.2696,-0.2696,-0.2697,-0.2699,-0.2698,-0.2682,-0.2682,-0.2682,0,-0.3015,-0.3004,-0.2969,-0.2958,-0.2942,-0.2923,-0.2909,-0.2883,-0.2869,-0.284,-0.2831,-0.2808,-0.2788,-0.2754,-0.2729,-0.2706,-0.2698,-0.2701,-0.2694,-0.2702,-0.2698,-0.27,-0.2699,-0.2702,-0.2702,-0.2703,-0.2703,0,-0.3022,-0.301,-0.2991,-0.2967,-0.2951,-0.2931,-0.291,-0.2902,-0.2872,-0.2857,-0.2835,-0.282,-0.2789,-0.2767,-0.2741,-0.2724,-0.2709,-0.2705,-0.2704,-0.271,-0.272,-0.2715,-0.2704,-0.2705,-0.2705,-0.2705,-0.2704,-0.2704,-0.303,-0.302,-0.2994,-0.2973,-0.2955,-0.2937,-0.2924,-0.2904,-0.2885,-0.2858,-0.2845,-0.2823,-0.2798,-0.2762,-0.2746,-0.2729,-0.2724,-0.2721,-0.2721,-0.272,-0.2723,-0.2724,-0.2724,-0.2724,-0.2724,-0.2724,-0.2724,0,-0.3036,-0.3019,-0.3,-0.2972,-0.2956,-0.2944,-0.2921,-0.2908,-0.2889,-0.2868,-0.2849,-0.2824,-0.2802,-0.2777,-0.2754,-0.2745,-0.2737,-0.274,-0.274,-0.2737,-0.2728,-0.2732,-0.2746,-0.2746,-0.2746,-0.2746,-0.2746,-0.2746,-0.3037,-0.3018,-0.3005,-0.2977,-0.296,-0.2939,-0.2927,-0.291,-0.2893,-0.2866,-0.2849,-0.2832,-0.2809,-0.2785,-0.2765,-0.2758,-0.275,-0.2755,-0.2746,-0.2739,-0.2737,-0.2735,-0.2739,-0.2753,-0.2753,-0.2755,-0.2755,-0.2755]},{"header":{"parameterUnit":"m.s-1","parameterCategory":1,"la1":30.2991,"la2":30.254,"lo1":-89.0895,"lo2":-89.0444,"dy":0.0017,"dx":0.0017,"nx":28,"ny":28,"refTime":"2025-09-04T03:00:00:Z","depth":0,"parameterNumber":3,"parameterNumberName":"V-component_of_WINDS"},"data":[0,0,0,0,0,0,0,0,0,0,0,0,0,0,0,0,0,0,0,0,0,0,0,0,0,0,0,0,0,0,0,0,0,0,0,0,0,0,0,0,0,0,0,0,0,0,0,0,0,0,0,0,0,0,0,0,0,0,4.2255,4.2255,0,4.2207,4.2206,4.2206,4.2213,4.2214,4.2215,4.2216,4.2159,4.2156,4.2154,0,0,0,0,0,0,0,0,0,0,0,0,0,4.2348,4.2346,4.2256,4.2255,4.2254,4.2207,4.2206,4.2206,4.2213,4.2214,4.2215,4.2216,4.2159,4.2157,4.2154,0,0,0,0,0,0,0,0,0,0,0,0,0,4.2304,4.2345,4.2256,4.2253,4.2252,4.2207,4.2206,4.2206,4.2213,4.2214,4.2216,4.2217,4.216,4.2157,4.2154,4.2107,0,0,4.2143,4.2142,0,0,0,0,0,0,0,0,4.2306,4.2301,4.2254,4.2253,4.2252,4.2218,4.2218,4.2172,4.2213,4.2227,4.2216,4.2217,4.2177,4.2172,4.216,4.2104,4.2102,4.2143,4.2141,4.2139,4.2138,0,0,0,0,0,0,0,4.2309,4.2303,4.2236,4.2253,4.2252,4.2251,4.2246,4.2209,4.2195,4.2226,4.2227,4.2221,4.2176,4.2163,4.2159,4.2101,4.2143,4.214,4.2138,4.2136,4.2002,4.2001,0,0,0,0,0,0,4.2314,4.2305,4.2238,4.2235,4.2283,4.2249,4.2243,4.2227,4.2196,4.2192,4.222,4.2222,4.2169,4.2163,4.2157,4.2099,4.2139,4.2136,4.2134,4.2004,4.2002,4.2,0,0,0,0,0,0,4.2316,4.2308,4.224,4.227,4.2261,4.2246,4.2228,4.2226,4.2212,4.2191,4.2188,4.221,4.2169,4.2162,4.2119,4.2097,4.2134,4.2131,4.2006,4.2003,4.2001,4.1983,0,0,0,0,0,0,4.2319,4.2309,4.2293,4.227,4.226,4.2205,4.2226,4.2224,4.2207,4.2209,4.2181,4.2177,4.217,4.2124,4.2116,4.2093,4.2128,4.2007,4.2005,4.2002,4.1985,4.198,4.1976,0,0,0,0,0,4.2322,4.2288,4.2292,4.2284,4.2239,4.2204,4.2198,4.2192,4.2206,4.2188,4.2174,4.2178,4.2101,4.212,4.211,4.2086,4.2009,4.2005,4.2002,4.1987,4.1981,4.1976,0,0,0,0,0,0,4.2306,4.2285,4.2289,4.2247,4.2228,4.2205,4.2183,4.2186,4.216,4.2163,4.2154,4.2148,4.2105,4.2091,4.2113,4.2038,4.2056,4.2051,4.2049,4.2042,4.2038,4.2041,4.2126,0,0,0,0,0,4.2299,4.2274,4.2256,4.222,4.221,4.2198,4.2183,4.218,4.2159,4.215,4.2133,4.211,4.208,4.2061,4.2033,4.1984,4.1977,4.1962,4.1957,4.1954,4.1948,4.192,4.1913,4.1989,4.1989,4.199,0,0,4.2281,4.2266,4.2251,4.2217,4.2201,4.2173,4.2191,4.2161,4.214,4.2144,4.2104,4.2091,4.2064,4.2018,4.1997,4.2005,4.1926,4.1949,4.1947,4.1943,4.1916,4.1909,4.1902,4.1987,4.1988,4.1988,0,0,4.2234,4.2222,4.219,4.2175,4.2153,4.2145,4.2137,4.2115,4.2107,4.2067,4.2069,4.2042,4.1992,4.1973,4.1957,4.1903,4.1905,4.1894,4.1869,4.1841,4.1835,4.1829,4.1808,4.1801,4.1889,4.1889,4.1889,0,4.2214,4.2175,4.2173,4.2143,4.2127,4.2133,4.2099,4.2084,4.2052,4.204,4.205,4.1987,4.197,4.1919,4.1906,4.1893,4.1882,4.1896,4.1837,4.1831,4.1826,4.1806,4.1798,4.1888,4.1888,4.1888,4.1888,0,4.2151,4.2124,4.2101,4.2072,4.2054,4.2022,4.2013,4.1994,4.1993,4.1984,4.1941,4.1921,4.1888,4.1876,4.1874,4.1824,4.183,4.1839,4.1857,4.1817,4.1798,4.179,4.1886,4.1886,4.1887,4.1887,0,0,4.2092,4.2064,4.2055,4.2042,4.2018,4.1995,4.1963,4.1933,4.1916,4.1894,4.1865,4.1823,4.1831,4.1812,4.1808,4.1784,4.1741,4.1795,4.1794,4.1784,4.1682,4.1675,4.1666,4.1743,4.1741,4.174,4.1684,0,4.2042,4.1988,4.1985,4.1935,4.1908,4.1913,4.1885,4.1865,4.1855,4.1829,4.1817,4.1787,4.1801,4.1789,4.1766,4.1751,4.172,4.1755,4.1713,4.1712,4.1718,4.1657,4.1649,4.1597,4.1677,4.1676,4.1675,0,4.1976,4.1955,4.1902,4.1881,4.187,4.1845,4.1817,4.1793,4.177,4.1765,4.1744,4.1743,4.1708,4.1728,4.1678,4.1702,4.1684,4.1674,4.1672,4.1666,4.169,4.1647,4.158,4.1572,4.1663,4.1664,4.1665,0,4.1937,4.1894,4.1857,4.1846,4.1821,4.1803,4.1791,4.177,4.1752,4.1727,4.1715,4.1685,4.1668,4.1644,4.1634,4.165,4.1583,4.1603,4.1575,4.1575,4.1559,4.156,4.1486,4.1551,4.1551,4.1551,4.1551,0,4.188,4.1847,4.1839,4.1816,4.1779,4.1775,4.1737,4.1726,4.1707,4.168,4.1682,4.1656,4.1646,4.1617,4.1609,4.1567,4.156,4.1553,4.155,4.1551,4.1552,4.1538,4.1541,4.1549,4.1549,4.155,4.155,0,4.1829,4.1822,4.1782,4.1762,4.1756,4.1729,4.1711,4.1688,4.1679,4.1644,4.1636,4.1621,4.1588,4.1576,4.1535,4.153,4.148,4.1482,4.1489,4.1488,4.146,4.1462,4.1373,4.136,4.1435,4.1434,4.1434,0,4.1792,4.1768,4.1746,4.1729,4.1717,4.169,4.1673,4.1667,4.1648,4.1621,4.16,4.1568,4.1541,4.1487,4.1471,4.1439,4.1439,4.141,4.1434,4.1436,4.1436,4.1437,4.1434,4.1405,4.1404,4.1404,4.1403,0,4.1728,4.1726,4.1702,4.1676,4.1656,4.1635,4.1614,4.16,4.1591,4.1569,4.1537,4.1517,4.1476,4.1443,4.141,4.1395,4.1396,4.1396,4.1388,4.1388,4.1392,4.1387,4.1475,4.1398,4.1398,4.1399,4.1399,4.1399,4.1682,4.166,4.1641,4.1614,4.1598,4.1579,4.1556,4.1545,4.1519,4.1486,4.1485,4.1449,4.1425,4.1382,4.1366,4.1336,4.1343,4.1331,4.1328,4.1325,4.1322,4.1398,4.133,4.133,4.133,4.133,4.133,0,4.1616,4.1605,4.158,4.1552,4.153,4.1537,4.1514,4.1494,4.1464,4.1443,4.1418,4.1379,4.1347,4.1329,4.1296,4.1275,4.1275,4.1267,4.1267,4.1263,4.1318,4.1328,4.1268,4.1268,4.1268,4.1268,4.1268,4.1268,4.1579,4.1542,4.1538,4.1492,4.148,4.1447,4.1433,4.1415,4.1398,4.1356,4.133,4.132,4.1299,4.1265,4.1235,4.123,4.1217,4.1207,4.1203,4.1253,4.126,4.1266,4.1275,4.1205,4.1205,4.1151,4.115,4.115]}]]